Lexington Weather

Lexington, Massachusetts, USA

41°F
11/27/2020 3:26am 
  • Lexington Conditions: Fog, Overcast
  • Temperature: 40.8°F / 4.9°CWarmer 1.1°F than last hour.
  • Dew Point: 40.1°FIncreased 1.1°Fsince last hour.
  • Relative Humidity: 97
  • Wind: Calm, 10-min avg: Calm, gust: None
  • Barometer: 29.97 in Steady
  • Visibility: ¼ mile
  • Rain Today: 0.00 in
  •   
Southeast Middlesex County - Special Weather Statement
 - SEE ALL NEARBY ALERTS -

Regional Weather Roundup
for Boston / Norton, MA

        
000
ASUS41 KBOX 221104
RWRBOX

REGIONAL WEATHER ROUNDUP
NATIONAL WEATHER SERVICE BOSTON/NORTON MA
600 AM EST SUN NOV 22 2020

NOTE:  "FAIR" INDICATES FEW OR NO CLOUDS BELOW 12,000 FEET WITH NO 
SIGNIFICANT WEATHER AND/OR OBSTRUCTIONS TO VISIBILITY.

MAZALL-221200-
EASTERN MASSACHUSETTS
  
CITY           SKY/WX    TMP DP  RH WIND       PRES   REMARKS
BOSTON         PTCLDY    35  26  69 N9        30.54S WCI  28          
BEVERLY        PTCLDY    34  25  69 N5        30.53S WCI  30          
LAWRENCE       CLEAR     30  24  78 N3        30.56S                  
BEDFORD        CLEAR     29  24  82 CALM      30.54R                  
BLUE HILL        N/A     34  25  69 N10       30.49S WCI  26          
NORWOOD        CLEAR     35  25  66 CALM      30.53S                  
MARSHFIELD     MOCLDY    46  34  61 NE13      30.52R                  
PLYMOUTH       PTCLDY    43  31  62 NE9       30.50S                  
TAUNTON        CLEAR     31  27  85 CALM      30.51S                  
NEW BEDFORD    CLEAR     37  31  78 N5        30.50S                  
$$

MAZALL-221200-
CAPE COD AND THE ISLANDS
  
CITY           SKY/WX    TMP DP  RH WIND       PRES   REMARKS
FALMOUTH       PTCLDY    43  32  65 NE14      30.50R                  
HYANNIS        CLEAR     43  35  73 NE7       30.48S                  
CHATHAM        MOCLDY    46  34  62 NE12G22   30.50S                  
PROVINCETOWN   PTCLDY    44  34  67 NE13G20   30.52R                  
NANTUCKET      CLOUDY    49  38  65 NE14      30.47S                  
MARTHAS VNYRD  CLEAR     46  36  68 NE15      30.48R                  
$$
 
MAZALL-221200-
CENTRAL AND WESTERN MASSACHUSETTS
  
CITY           SKY/WX    TMP DP  RH WIND       PRES   REMARKS
WORCESTER      CLEAR     33  22  63 NE8       30.50R WCI  26          
FITCHBURG      CLEAR     27  24  89 CALM      30.55R                  
ORANGE         CLEAR     23  22  96 CALM      30.53F                  
SPRINGFIELD    CLEAR     25  24  95 CALM      30.52S                  
WESTFIELD      CLEAR     28  26  92 N3        30.53S                  
NORTH ADAMS    PTCLDY    24  20  84 CALM      30.51S                  
PITTSFIELD     PTCLDY    25  22  88 CALM      30.46F                  
$$
 
RIZALL-221200-
RHODE ISLAND
  
CITY           SKY/WX    TMP DP  RH WIND       PRES   REMARKS
PROVIDENCE     CLEAR     38  28  67 N9        30.52S WCI  31          
NEWPORT        CLEAR     38  31  76 N8        30.50S                  
BLOCK ISLAND   CLEAR     43  35  73 NE16G24   30.49                   
SMITHFIELD     CLEAR     33  27  78 N8        30.51S WCI  26          
WESTERLY       CLEAR     39  27  62 N6        30.50R                  
$$
 
CTZALL-221200-
CONNECTICUT
  
CITY           SKY/WX    TMP DP  RH WIND       PRES   REMARKS
BRADLEY INTL   MOCLDY    31  25  78 N6        30.52S WCI  25          
HARTFORD       CLEAR     35  27  72 N6        30.53R WCI  30          
BRIDGEPORT     CLOUDY    43  28  55 NE15      30.49                   
DANBURY        CLOUDY    37  27  67 E7        30.49F WCI  32          
GROTON         CLEAR     39  28  64 N9        30.49S                  
NEW HAVEN      MOCLDY    41  29  62 N8        30.49S                  
CHESTER        FAIR      37  27  65 NE6G12    30.49S                  
MERIDEN        PTCLDY    36  27  69 NE3       30.51S                  
WILLIMANTIC    CLEAR     32  25  75 N5        30.52R WCI  27          
OXFORD         PTCLDY    36  28  73 NE9G18    30.48S WCI  29          
$$

MEZ002-015-021-024-NHZ003-005-008-011-012-014-VTZ005-008-221200-
NORTHERN NEW ENGLAND
  
CITY           SKY/WX    TMP DP  RH WIND       PRES   REMARKS
PORTLAND ME    CLEAR     28  18  66 N6        30.58R WCI  22          
BANGOR ME      CLEAR     18  13  80 CALM      30.59R                  
CONCORD NH     CLEAR     22  19  89 CALM      30.55S                  
MANCHESTER NH  CLEAR     29  23  78 N3        30.54R                  
NASHUA NH      CLEAR     26  26 100 NW5       30.56S WCI  20          
PORTSMOUTH NH  MOCLDY    32  21  63 N6        30.54S WCI  26          
JAFFREY NH     CLEAR     24  19  81 CALM      30.51S                  
KEENE NH       CLEAR     21  20  96 CALM      30.55R                  
BURLINGTON VT  CLEAR     27  21  78 CALM      30.54R                  
MT. WASHINGTON PTCLDY    27 -20  12 W18         N/A  WCI  13          
$$

NYZ052-076-221200-
EASTERN NEW YORK
  
CITY           SKY/WX    TMP DP  RH WIND       PRES   REMARKS
ALBANY         PTCLDY    25  24  96 CALM      30.52S                  
NEW YORK CITY  CLOUDY    46  31  55 NE16      30.47F                  
$$
 
ANZALL-221200-
MARINE OBSERVATIONS
  
STATION/POSITION TIME  TEMP    WIND        PRES    VSBY  WAVE
                       AIR SEA DIR/SP/G                  HT/PER
                 (UTC) (F)     (DEG/KT/KT) (MB)    (MI)  (FT/S)
BOSTON BUOY      1040   44 51   50/ 14/ 17 1034.1R
BUZZARDS BAY     1000           10/ 17/ 18 1033.1R
NANTUCKET SOUND  1040      53   40/ 16/ 21   N/A
MASS BAY-STELLWA NOT AVBL
ISLE OF SHOALS   1000   40      60/ 16/ 19 1033.6R
S OF BLOCK IS    1026      58                N/A           5/ 5
$$

......................KEY.........................
  SKY/WX - SKY CONDITION/PRESENT WEATHER
  TMP    - TEMPERATURE IN FAHRENHEIT
  DWPT   - DEWPOINT IN FAHRENHEIT
  RH     - RELATIVE HUMIDITY IN PERCENT
  WIND   - DIRECTION AND SPEED IN MPH
  PRES   - MEAN SEA LEVEL PRESSURE IN INCHES OF HG
  WCI    - WIND CHILL INDEX
  VSB    - VISIBILITY IN MILES
  HX     - HEAT INDEX
  TC     - TEMPERATURE IN CELSIUS
  VRB    - VARIABLE WIND DIRECTION
  N/A    - NOT AVAILABLE
  
      

Other recent Regional Weather Roundups

Fri Nov 27, 12:04am

Thu Nov 26, 11:04pm

Thu Nov 26, 10:04pm

Thu Nov 26, 9:04pm

Thu Nov 26, 8:04pm

Thu Nov 26, 7:04pm

Thu Nov 26, 6:04pm

Thu Nov 26, 5:04pm

Thu Nov 26, 4:04pm

Thu Nov 26, 2:04pm

Thu Nov 26, 1:04pm

Thu Nov 26, 12:04pm

Thu Nov 26, 11:04am

Thu Nov 26, 10:04am

Thu Nov 26, 9:04am

Thu Nov 26, 8:04am

Thu Nov 26, 7:04am

Thu Nov 26, 6:04am

Thu Nov 26, 5:04am

Thu Nov 26, 4:04am

Thu Nov 26, 3:04am

Thu Nov 26, 2:04am

Thu Nov 26, 1:04am

Thu Nov 26, 12:04am

Wed Nov 25, 11:04pm

Wed Nov 25, 10:04pm

Wed Nov 25, 9:04pm

Wed Nov 25, 8:04pm

Wed Nov 25, 7:04pm

Wed Nov 25, 6:04pm

Wed Nov 25, 5:04pm

Wed Nov 25, 4:04pm

Wed Nov 25, 3:05pm

Wed Nov 25, 2:04pm

Wed Nov 25, 1:04pm

Wed Nov 25, 12:05pm

Wed Nov 25, 11:04am

Wed Nov 25, 10:04am

Wed Nov 25, 9:04am

Wed Nov 25, 8:04am

Wed Nov 25, 7:04am

Wed Nov 25, 6:04am

Wed Nov 25, 5:04am

Wed Nov 25, 4:04am

Wed Nov 25, 3:04am

Wed Nov 25, 2:04am

Wed Nov 25, 1:04am

Wed Nov 25, 12:04am

Tue Nov 24, 11:04pm

Tue Nov 24, 10:04pm

Tue Nov 24, 9:04pm

Tue Nov 24, 8:04pm

Tue Nov 24, 7:04pm

Tue Nov 24, 6:04pm

Tue Nov 24, 5:04pm

Tue Nov 24, 4:05pm

Tue Nov 24, 3:05pm

Tue Nov 24, 2:05pm

Tue Nov 24, 1:05pm

Tue Nov 24, 12:04pm

Tue Nov 24, 11:04am

Tue Nov 24, 10:04am

Tue Nov 24, 9:04am

Tue Nov 24, 8:04am

Tue Nov 24, 7:04am

Tue Nov 24, 6:04am

Tue Nov 24, 5:04am

Tue Nov 24, 4:05am

Tue Nov 24, 3:04am

Tue Nov 24, 2:04am

Tue Nov 24, 1:04am

Tue Nov 24, 12:05am

Mon Nov 23, 11:04pm

Mon Nov 23, 10:04pm

Mon Nov 23, 9:04pm

Mon Nov 23, 8:04pm

Mon Nov 23, 7:04pm

Mon Nov 23, 6:04pm

Mon Nov 23, 5:04pm

Mon Nov 23, 4:04pm

Mon Nov 23, 3:04pm

Mon Nov 23, 2:04pm

Mon Nov 23, 1:04pm

Mon Nov 23, 12:04pm

Mon Nov 23, 11:04am

Mon Nov 23, 10:04am

Mon Nov 23, 9:04am

Mon Nov 23, 8:05am

Mon Nov 23, 7:04am

Mon Nov 23, 6:04am

Mon Nov 23, 5:04am

Mon Nov 23, 4:04am

Mon Nov 23, 3:04am

Mon Nov 23, 2:04am

Mon Nov 23, 1:04am

Mon Nov 23, 12:05am

Sun Nov 22, 11:04pm

Sun Nov 22, 10:04pm

Sun Nov 22, 9:04pm

Sun Nov 22, 8:05pm

Sun Nov 22, 7:04pm

Sun Nov 22, 6:04pm

Sun Nov 22, 5:04pm

Sun Nov 22, 4:04pm

Sun Nov 22, 3:04pm

Sun Nov 22, 2:04pm

Sun Nov 22, 1:05pm

Sun Nov 22, 12:04pm

Sun Nov 22, 11:04am

Sun Nov 22, 10:05am

Sun Nov 22, 9:04am

Sun Nov 22, 8:04am

Sun Nov 22, 7:04am

Sun Nov 22, 5:04am

Sun Nov 22, 4:04am

Sun Nov 22, 3:04am

Sun Nov 22, 2:04am

Sun Nov 22, 1:04am

Sun Nov 22, 12:04am

Sat Nov 21, 11:04pm

Sat Nov 21, 10:04pm

Sat Nov 21, 9:04pm

Sat Nov 21, 8:05pm

Sat Nov 21, 7:04pm

Sat Nov 21, 6:04pm

Sat Nov 21, 5:04pm

Sat Nov 21, 4:05pm

Sat Nov 21, 3:04pm

Sat Nov 21, 2:04pm

Sat Nov 21, 1:05pm

Sat Nov 21, 12:04pm

Sat Nov 21, 11:04am

Sat Nov 21, 10:04am

Sat Nov 21, 9:04am

Sat Nov 21, 8:04am

Sat Nov 21, 7:04am

Sat Nov 21, 6:04am

Sat Nov 21, 5:04am

Sat Nov 21, 4:04am

Sat Nov 21, 3:04am

Sat Nov 21, 2:04am

Sat Nov 21, 1:04am

Sat Nov 21, 12:04am

Fri Nov 20, 11:04pm

Fri Nov 20, 10:04pm

Fri Nov 20, 9:04pm

Fri Nov 20, 8:04pm

Fri Nov 20, 7:04pm

Fri Nov 20, 6:04pm

Fri Nov 20, 5:04pm

Fri Nov 20, 4:05pm

Fri Nov 20, 3:05pm

Fri Nov 20, 2:04pm

Fri Nov 20, 1:04pm

Fri Nov 20, 12:04pm

Fri Nov 20, 11:04am

Fri Nov 20, 10:04am

Fri Nov 20, 9:04am

Fri Nov 20, 8:04am

Fri Nov 20, 7:04am

Fri Nov 20, 6:04am

Fri Nov 20, 5:04am

Fri Nov 20, 4:04am

Meta data:

ID: 9df17faa-c92f-46c2-9ce9-ce919ef4b8df
Link: https://api.weather.gov/products/9df17faa-c92f-46c2-9ce9-ce919ef4b8df